#timestamp,LO_Frequency,Hit,StdDev 
1556449215.2,286047001.4,N
1556449235.0,286047003.2,N
1556449235.9,286047003.2,N
1556449255.8,286047006.0,N
1556449275.6,286047006.0,N
1556449295.4,286047003.5,N
1556449315.3,286047003.4,N
1556449335.1,286047004.0,N
1556449355.9,286047002.5,N
1556449375.7,286047004.3,N
1556449395.5,286047004.3,N
1556449415.4,286047001.4,N
1556449435.2,286047001.0,N
1556449455.1,286047001.0,N
1556449456.0,286047001.0,N
1556449475.8,286047002.4,N
1556449495.7,286047002.4,N
1556449515.5,286047002.4,N
1556449535.3,286047003.9,N
1556449555.2,286047003.2,N
1556449575.0,286047003.5,N
1556449575.9,286047003.5,N
1556449595.8,286047002.8,N
1556449615.6,286047001.5,N
1556449635.4,286047001.5,N
1556449655.3,286047002.8,N
1556449675.1,286047000.0,N
1556449695.8,286047002.5,N
1556449715.7,286047000.5,N
1556449735.5,286047000.9,N
1556449755.3,286046999.9,N
1556449775.2,286047001.2,N
1556449795.0,286047000.9,N
1556449795.9,286047000.9,N
1556449815.8,286047002.3,N
1556449835.6,286047004.4,Y
1556449855.4,286046999.7,P
1556449875.3,286046998.2,N
1556449895.1,286046998.8,N
1556449915.9,286046999.3,N
1556449935.7,286046998.6,N
1556449955.5,286047002.8,N
1556449975.4,286047002.2,N
1556449995.2,286047004.2,N
1556450015.0,286047001.8,N
1556450015.9,286047001.8,N
1556450035.8,286047002.2,N
1556450055.7,286047002.5,N
1556450075.5,286047002.0,N
1556450095.4,286047004.4,N
1556450115.2,286046999.9,N
1556450135.0,286047000.7,N
1556450135.9,286047000.7,N
1556450155.8,286047001.0,N
1556450175.6,286047002.4,N
1556450195.4,286047002.2,N
1556450215.3,286047001.8,N
1556450235.1,286047002.3,N
1556450255.9,286046998.8,N
1556450275.7,286046997.0,N
1556450295.5,286046997.1,N
1556450315.1,286046998.5,N
1556450335.9,286047011.9,Y
1556450355.7,286047000.6,P
1556450375.5,286047000.6,P
1556450395.4,286047000.9,P
1556450415.2,286046998.2,Y
1556450435.1,286047000.9,P
1556450436.0,286047000.9,P
1556450455.8,286046999.7,P
1556450475.6,286047000.3,N
1556450495.5,286047000.3,N
1556450515.3,286047000.8,N
1556450535.1,286047001.1,N
1556450555.9,286046999.3,N
1556450575.7,286046998.4,N
1556450595.6,286046998.8,N
1556450615.4,286046997.0,Y
1556450635.2,286046999.3,P
1556450655.1,286047000.9,N
1556450656.0,286047000.9,N
1556450675.8,286047000.0,N
1556450695.7,286046999.7,N
1556450715.5,286047000.8,N
1556450735.3,286047000.8,N
1556450755.2,286046999.0,N
1556450775.6,286046998.8,N
1556450795.5,286046999.2,N
1556450815.3,286046998.2,N
1556450835.1,286046999.3,N
1556450855.9,286046996.6,Y
1556450875.7,286046999.1,P
1556450895.6,286046997.1,P
1556450915.4,286046999.6,N
1556450935.2,286046998.5,N
1556450955.1,286046998.5,N
1556450956.0,286046998.5,N
1556450975.8,286046998.6,N
1556450995.6,286046998.1,N
1556451015.5,286047000.1,N
1556451035.3,286047000.6,N
1556451055.2,286046998.6,N
1556451075.6,286047001.2,N
1556451095.4,286047000.9,N
1556451115.2,286047000.4,N
1556451135.1,286047000.9,N
1556451136.0,286047000.9,N
1556451155.8,286046998.3,N
1556451175.6,286046998.8,N
1556451195.5,286046998.9,N
1556451215.3,286047000.2,N
1556451235.2,286046998.1,N
1556451255.9,286046999.4,N
1556451275.7,286046997.5,N
1556451295.6,286046998.9,N
1556451315.4,286046998.3,N
1556451335.2,286046998.9,N
1556451355.1,286046999.4,N
1556451356.0,286046999.4,N
1556451375.8,286046999.2,N
1556451395.7,286046998.4,N
1556451415.5,286046996.5,Y
1556451435.3,286046996.7,P
1556451455.2,286046998.7,N
1556451475.0,286046998.2,N
1556451475.9,286046998.2,N
1556451495.8,286046999.8,N
1556451515.6,286047002.0,N
1556451535.4,286047001.5,N
1556451555.3,286047001.3,N
1556451575.1,286046999.9,N
1556451595.8,286047000.8,N
1556451615.7,286047000.9,N
1556451635.5,286047000.7,N
1556451655.4,286046998.8,N
1556451675.2,286046998.7,N
1556451695.0,286046998.2,N
1556451695.9,286046998.2,N
1556451715.8,286047000.4,N
1556451735.6,286047000.8,N
1556451755.4,286047000.9,N
1556451775.3,286047000.8,N
1556451795.1,286047002.7,N
1556451815.9,286046999.9,N
1556451835.7,286047000.2,N
1556451855.5,286047002.3,N
1556451875.4,286047001.6,N
1556451895.2,286047002.1,N
1556451915.0,286047002.6,N
1556451915.9,286047002.6,N
1556451935.8,286047004.0,N
1556451955.6,286047001.3,N
1556451975.5,286047002.2,N
1556451995.3,286047004.1,N
1556452015.1,286047001.4,N
1556452035.9,286047001.4,N
1556452055.7,286047000.8,N
1556452075.5,286046999.8,N
1556452095.4,286046999.7,N
1556452115.2,286047002.2,N
1556452135.0,286047003.2,N
1556452136.0,286047003.2,N
1556452155.8,286047003.8,N
1556452175.6,286047001.4,N
1556452195.5,286047004.4,N
1556452215.3,286047002.3,N
1556452235.1,286047001.5,N
1556452255.9,286047002.5,N
1556452275.7,286047004.2,Y
1556452295.6,286047002.4,P
1556452315.4,286047002.2,P
1556452335.2,286047002.3,P
1556452355.1,286047002.3,Y
1556452356.0,286047002.3,P
1556452375.8,286046999.0,P
1556452395.7,286046999.6,N
1556452415.5,286046995.1,Y
1556452435.3,286046994.5,P
1556452455.2,286046994.4,N
1556452475.0,286046994.2,N
1556452475.9,286046994.2,N
1556452495.8,286046986.3,Y
1556452515.6,286046996.7,P
1556452535.4,286046999.5,N
1556452555.3,286046998.5,N
1556452575.1,286046996.6,N
1556452595.8,286046996.5,N
1556452615.7,286046996.5,N
1556452635.5,286046995.0,Y
1556452655.4,286046998.3,P
1556452675.2,286047000.5,N
1556452695.0,286047000.3,N
1556452695.9,286047000.3,N
1556452715.8,286047000.5,N
1556452735.6,286047000.7,N
1556452755.4,286046998.8,N
1556452775.3,286046998.9,N
1556452795.1,286046998.7,N
